FENGYUN 3B              
1 37214U 10059A   19266.10820224 -.00000006  00000-0  20386-4 0  9995
2 37214  99.0108 239.2039 0016595 310.5696  49.4037 14.15924442459708
CZ-4C R/B               
1 37215U 10059B   19266.18425658 -.00000007  00000-0  11619-4 0  9996
2 37215  98.7424  17.0085 0089291  44.9180 315.9191 14.46264408468815
CZ-4C DEB               
1 38293U 10059C   19264.94507549 -.00000033  00000-0  53175-5 0  9998
2 38293  98.8931 305.4749 0010532 255.9895 104.0115 14.28654274456438
CZ-4C DEB               
1 38294U 10059D   19264.35986203  .00000138  00000-0  15311-3 0  9995
2 38294  98.6688 306.4336 0265482 220.2364 137.8866 13.71524297433262
CZ-4C DEB               
1 38295U 10059E   19264.32608860  .00000096  00000-0  12061-3 0  9995
2 38295  98.6707 299.1171 0272102 247.0306 171.3745 13.69245124434334
CZ-4C DEB               
1 38296U 10059F   19265.05795671  .00000069  00000-0  90171-4 0  9993
2 38296  98.7883 345.0599 0246473 173.2447 187.2130 13.75151013442203
CZ-4C DEB               
1 38297U 10059G   19264.42365654  .00000108  00000-0  12174-3 0  9998
2 38297  98.7457 336.5518 0244050 157.5184 203.6883 13.75726240440766